FW1492 Weather Reports


Display with metric or nautical units.
time (UTC)temp
F
wind
direction
speed
MPH
gust
MPH
rain 1hr
in
rain 24hr
in
rain mn
in
humidity
%
barometer
mb
20260505223035 74 251 5.0 10.0 0.00 0.00 0.00 41 1008.7
20260505221531 75 224 3.0 9.0 0.00 0.00 0.00 41 1008.6
20260505220030 76 217 5.0 10.0 0.00 0.00 0.00 39 1008.5
20260505214537 77 224 4.0 9.0 0.00 0.00 0.00 38 1008.3
20260505213027 77 232 4.0 9.0 0.00 0.00 0.00 39 1008.4
20260505211526 76 200 6.0 12.0 0.00 0.00 0.00 38 1008.2
20260505210028 78 203 5.0 10.0 0.00 0.00 0.00 36 1008.0
20260505204526 79 264 2.0 7.0 0.00 0.00 0.00 37 1008.1
20260505203024 78 250 6.0 12.0 0.00 0.00 0.00 38 1008.3
20260505201526 79 229 4.0 9.0 0.00 0.00 0.00 38 1008.2
20260505200024 78 202 5.0 9.0 0.00 0.00 0.00 38 1008.3
20260505194517 78 224 3.0 8.0 0.00 0.00 0.00 39 1008.2
20260505193017 78 205 5.0 9.0 0.00 0.00 0.00 39 1008.4
20260505191514 78 240 4.0 10.0 0.00 0.00 0.00 38 1008.5
20260505190013 78 230 6.0 10.0 0.00 0.00 0.00 39 1008.6
20260505184520 78 224 3.0 8.0 0.00 0.00 0.00 42 1008.8
20260505183020 77 225 4.0 10.0 0.00 0.00 0.00 43 1009.0
20260505181504 77 169 4.0 8.0 0.00 0.00 0.00 44 1009.6
20260505180004 78 275 2.0 8.0 0.00 0.00 0.00 45 1009.6
20260505174600 78 214 2.0 8.0 0.00 0.00 0.00 45 1009.7
20260505173056 77 240 3.0 7.0 0.00 0.00 0.00 46 1009.7
20260505171555 77 239 3.0 7.0 0.00 0.00 0.00 46 1009.8
20260505170053 77 166 3.0 6.0 0.00 0.00 0.00 47 1010.0
20260505164557 76 231 1.0 7.0 0.00 0.00 0.00 50 1010.1
20260505163047 76 214 2.0 5.0 0.00 0.00 0.00 50 1010.2
20260505161545 75 288 2.0 6.0 0.00 0.00 0.00 51 1010.5
20260505153045 73 238 4.0 8.0 0.00 0.00 0.00 53 1011.3
20260505151544 72 205 2.0 5.0 0.00 0.00 0.00 55 1011.1
20260505124509 63 250 2.0 5.0 0.00 0.00 0.00 69 1011.2
20260505123006 62 228 0.0 3.0 0.00 0.00 0.00 73 1011.0
20260505121504 61 217 1.0 4.0 0.00 0.00 0.00 73 1011.0
20260505120005 61 210 1.0 4.0 0.00 0.00 0.00 73 1011.2
20260505114502 61 220 1.0 3.0 0.00 0.00 0.00 73 1011.3
20260505113058 59 218 1.0 3.0 0.00 0.00 0.00 74 1011.3
20260505111557 58 201 1.0 2.0 0.00 0.00 0.00 77 1011.1
20260505110106 59 210 0.0 1.0 0.00 0.00 0.00 75 1011.0
20260505101549 57 217 4.0 7.0 0.00 0.00 0.00 73 1011.4
20260505100048 57 287 3.0 8.0 0.00 0.00 0.00 72 1011.2
20260505094546 57 279 2.0 5.0 0.00 0.00 0.00 72 1011.2
20260505093044 57 255 2.0 8.0 0.00 0.00 0.00 71 1011.1
20260505091543 57 232 3.0 6.0 0.00 0.00 0.00 71 1010.9
20260505090044 57 238 2.0 4.0 0.00 0.00 0.00 71 1010.4
20260505084546 56 222 2.0 4.0 0.00 0.00 0.00 71 1010.5
20260505083039 56 245 2.0 5.0 0.00 0.00 0.00 70 1010.7
20260505081538 57 223 1.0 5.0 0.00 0.00 0.00 69 1010.6
20260505080037 57 250 3.0 6.0 0.00 0.00 0.00 68 1010.6
20260505074538 57 271 2.0 6.0 0.00 0.00 0.00 68 1010.7
20260505073042 57 229 1.0 5.0 0.00 0.00 0.00 68 1010.6
20260505071534 57 238 2.0 7.0 0.00 0.00 0.00 67 1010.5
20260505070041 57 210 3.0 5.0 0.00 0.00 0.00 67 1010.5
20260505064535 57 226 2.0 5.0 0.00 0.00 0.00 66 1010.6
20260505063032 57 235 3.0 6.0 0.00 0.00 0.00 66 1010.6
20260505061538 57 230 2.0 6.0 0.00 0.00 0.00 66 1010.7
20260505060031 57 227 3.0 6.0 0.00 0.00 0.00 65 1010.5
20260505054535 57 214 2.0 7.0 0.00 0.00 0.00 65 1010.6
20260505053029 56 236 3.0 5.0 0.00 0.00 0.00 65 1010.6
20260505051525 56 224 2.0 4.0 0.00 0.00 0.00 64 1010.7
20260505041530 57 210 3.0 6.0 0.00 0.00 0.00 61 1010.9
20260505040014 57 178 2.0 5.0 0.00 0.00 0.00 60 1010.9
20260505034521 58 195 3.0 5.0 0.00 0.00 0.00 59 1011.1
20260505033013 58 207 2.0 5.0 0.00 0.00 0.00 58 1011.1
20260505031523 58 212 3.0 5.0 0.00 0.00 0.00 58 1011.3
20260505030011 58 198 2.0 5.0 0.00 0.00 0.00 57 1011.6
20260505024511 59 204 3.0 5.0 0.00 0.00 0.00 56 1011.5
20260505023011 59 199 2.0 4.0 0.00 0.00 0.00 56 1011.5
20260505021510 60 206 1.0 3.0 0.00 0.00 0.00 55 1011.5
20260505020009 60 210 2.0 3.0 0.00 0.00 0.00 55 1011.7
20260505014507 60 204 2.0 4.0 0.00 0.00 0.00 55 1011.7
20260505013009 60 215 2.0 4.0 0.00 0.00 0.00 55 1011.6
20260505011506 60 226 1.0 4.0 0.00 0.00 0.00 54 1011.3
20260505010006 61 179 1.0 4.0 0.00 0.00 0.00 54 1011.2
20260505004506 61 229 2.0 4.0 0.00 0.00 0.00 53 1011.1
20260505003005 61 209 1.0 3.0 0.00 0.00 0.00 53 1011.0
20260505001504 62 214 1.0 3.0 0.00 0.00 0.00 52 1010.9
20260505000006 63 200 2.0 6.0 0.00 0.00 0.00 50 1010.5
20260504234502 64 235 1.0 4.0 0.00 0.00 0.00 49 1010.5
20260504233002 65 205 2.0 4.0 0.00 0.00 0.00 46 1010.1
20260504231501 65 261 3.0 7.0 0.00 0.00 0.00 45 1010.0
20260504230100 66 233 3.0 7.0 0.00 0.00 0.00 44 1009.9
20260504224609 66 213 1.0 6.0 0.00 0.00 0.00 44 1010.0